{"data":{"norad_id":56153,"epoch":"2026-05-24T10:22:38.466624Z","epoch_age_seconds":127236,"freshness":"FRESH","line1":"1 56153U 23047A   26144.43238966  .00002054  00000+0  11578-3 0  9999","line2":"2 56153  97.5022 331.9216 0001631  98.6377 261.5039 15.14311659174209","mean_motion":15.14311659,"eccentricity":0.0001631,"inclination_deg":97.5022,"raan_deg":331.9216,"arg_perigee_deg":98.6377,"mean_anomaly_deg":261.5039,"bstar":0.00011578,"rev_number":17420,"period_min":95.092710370527,"perigee_km":521.94350925248,"apogee_km":524.19468268098,"semimajor_km":6901.2060959667,"source":"CELESTRAK","updated_at":"2026-05-25T13:37:59.364967Z"}}